Home   Weather   Madison   Past weeks
Flag for USA

Past Weather in Madison, Wisconsin, USA — Yesterday and Last 2 Weeks

Now
43 °F

Passing clouds.


Feels Like: 38 °F
Forecast: 44 / 25 °F
Wind: 9 mph from Northeast

Location: Dane County Regional-Truax Field

Current Time: Mar 25, 2019 at 3:30:16 pm

Latest Report: Mar 25, 2019 at 2:53 pm


Visibility: 10 mi

Pressure: 30.35 "Hg

Humidity: 43%

Dew Point: 22 °F

Location of MadisonLocation

Past Weather in Madison — Graph

°F

Madison Temperature Yesterday

Maximum temperature yesterday: 52 °F (at 11:53 am)
Minimum temperature yesterday: 31 °F (at 11:53 pm)
Average temperature yesterday: 42 °F

High & Low Weather Summary for the Past Weeks

 TemperatureHumidityPressure
High59 °F (Mar 14, 12:53 pm)100% (Mar 13, 7:27 am)30.40 "Hg (Mar 13, 7:27 am)
Low15 °F (Mar 12, 5:53 am)33% (Mar 22, 3:53 pm)29.18 "Hg (Mar 14, 1:53 pm)
Average37 °F71%30.07 "Hg
* Reported Mar 10 1:53 pm — Mar 25 1:53 pm, Madison. Weather by CustomWeather, © 2019

Note: Actual official high and low records may vary slightly from our data, if they occured in-between our weather recording intervals... More about our weather records

Advertising

Madison Weather History for the Previous 24 Hours

Scroll right to see more
 ConditionsComfort  
Time TempWeatherWind HumidityBarometerVisibility
1:53 pm
Mon, Mar 25
41 °FPassing clouds.3 mph49%30.37 "Hg10 mi
12:53 pm39 °FSunny.8 mph50%30.38 "Hg10 mi
11:53 am36 °FSunny.9 mph52%30.38 "Hg10 mi
10:53 am34 °FSunny.13 mph54%30.37 "Hg10 mi
9:53 am31 °FSunny.14 mph64%30.36 "Hg10 mi
8:53 am28 °FSunny.14 mph69%30.36 "Hg10 mi
7:53 am25 °FSunny.10 mph69%30.35 "Hg10 mi
6:53 am24 °FSunny.9 mph65%30.33 "Hg10 mi
5:53 am26 °FPassing clouds.15 mph60%30.31 "Hg10 mi
4:53 am28 °FOvercast.13 mph61%30.29 "Hg10 mi
3:53 am29 °FMostly cloudy.13 mph64%30.29 "Hg10 mi
2:53 am29 °FOvercast.9 mph66%30.28 "Hg10 mi
1:53 am29 °FPassing clouds.14 mph61%30.26 "Hg10 mi
12:53 am30 °FClear.12 mph66%30.24 "Hg10 mi
11:53 pm
Sun, Mar 24
31 °FClear.13 mph73%30.24 "Hg10 mi
10:53 pm34 °FOvercast.15 mph73%30.22 "Hg10 mi
9:53 pm36 °FMostly cloudy.12 mph75%30.21 "Hg10 mi
8:53 pm37 °FOvercast.15 mph79%30.19 "Hg10 mi
8:38 pm38 °FOvercast.12 mph76%30.16 "Hg10 mi
7:53 pm40 °FMostly cloudy.13 mph70%30.16 "Hg10 mi
6:53 pm42 °FMostly cloudy.15 mph76%30.12 "Hg10 mi
5:53 pm46 °FLow clouds.12 mph71%30.11 "Hg10 mi
4:53 pm46 °FMostly cloudy.No wind83%30.10 "Hg9 mi
3:53 pm45 °FLight rain. Mostly cloudy.3 mph86%30.09 "Hg8 mi
Weather by CustomWeather, © 2019

See weather overview